Weather History for Fort Myers, FL

Change the Weather History Date:

Saturday, November 24, 2012

  Actual Average Record
Temperature  
Mean Temperature 64 °F 70 °F  
Max Temperature 77 °F 80 °F 88 °F (1992)
Min Temperature 50 °F 60 °F 36 °F (1956)
Degree Days  
Heating Degree Days 1 1  
Month to date heating degree days 8 9  
Since 1 July heating degree days 11 11  
Cooling Degree Days 0 6  
Month to date cooling degree days 94 182  
Year to date cooling degree days 4194 3830  
Growing Degree Days 12 (Base 50)    
Moisture  
Dew Point 52 °F    
Average Humidity 72    
Maximum Humidity 93    
Minimum Humidity 38    
Precipitation  
Precipitation 0.00 in 0.04 in 0.69 in (1998)
Month to date precipitation 0.66 1.67  
Year to date precipitation 47.43 53.93  
Sea Level Pressure  
Sea Level Pressure 30.09 in    
Wind  
Wind Speed 5 mph (NNW)    
Max Wind Speed 15 mph    
Max Gust Speed 23 mph    
Visibility 10 miles    
Events      
T = Trace of Precipitation, MM = Missing Value Source: NWS Daily Summary

Daily Weather History Graph

Daily Weather History Graph

Search for Another Location

Airport:

Trip Planner

Search our weather history database for the weather conditions in past years. The results will help you decide how hot, cold, wet, or windy it might be!

Date:

Astronomy

Nov. 24, 2012 Rise Set
Actual Time 6:53 AM EST 5:34 PM EST
Civil Twilight 6:28 AM EST 5:59 PM EST
Nautical Twilight 6:00 AM EST 6:27 PM EST
Astronomical Twilight 5:32 AM EST 6:55 PM EST
Moon 3:05 PM EST 3:25 AM EST
Length of Visible Light 11h 30m
Length of Day
10h 40m
Waxing Gibbous, 87% of the Moon is Illuminated
Nov 24
Waxing Gibbous
Nov 28
Full
Dec 6
Last Quarter
Dec 13
New
Dec 20
First Quarter

Hourly Weather History & Observations

Time (EST) Temp. Dew Point Humidity Pressure Visibility Wind Dir Wind Speed Gust Speed Precip Events Conditions
12:53 AM 53.1 °F 48.0 °F 83% 30.12 in 10.0 mi Calm Calm - N/A   Clear
1:53 AM 54.0 °F 48.9 °F 83% 30.11 in 10.0 mi NNW 4.6 mph - N/A   Clear
2:53 AM 52.0 °F 48.0 °F 86% 30.09 in 10.0 mi Calm Calm - N/A   Clear
3:53 AM 51.1 °F 48.0 °F 89% 30.09 in 10.0 mi Calm Calm - N/A   Clear
4:53 AM 51.1 °F 48.0 °F 89% 30.09 in 10.0 mi Calm Calm - N/A   Clear
5:53 AM 51.1 °F 46.9 °F 86% 30.09 in 10.0 mi Calm Calm - N/A   Clear
6:53 AM 50.0 °F 48.0 °F 93% 30.11 in 10.0 mi Calm Calm - N/A   Scattered Clouds
7:53 AM 55.0 °F 51.1 °F 86% 30.11 in 10.0 mi Calm Calm - N/A   Clear
8:53 AM 64.9 °F 55.9 °F 73% 30.13 in 10.0 mi Calm Calm - N/A   Clear
9:53 AM 70.0 °F 55.9 °F 61% 30.14 in 10.0 mi NNE 5.8 mph - N/A   Clear
10:53 AM 72.0 °F 55.0 °F 55% 30.13 in 10.0 mi NNW 9.2 mph - N/A   Clear
11:53 AM 75.0 °F 50.0 °F 41% 30.11 in 10.0 mi North 10.4 mph - N/A   Clear
12:53 PM 75.0 °F 48.9 °F 40% 30.07 in 10.0 mi North 11.5 mph - N/A   Clear
1:53 PM 75.9 °F 50.0 °F 40% 30.04 in 10.0 mi North 6.9 mph - N/A   Clear
2:53 PM 75.0 °F 54.0 °F 48% 30.03 in 10.0 mi NW 13.8 mph - N/A   Clear
3:53 PM 73.0 °F 55.9 °F 55% 30.03 in 10.0 mi WNW 10.4 mph - N/A   Clear
4:53 PM 71.1 °F 55.9 °F 59% 30.04 in 10.0 mi WNW 10.4 mph - N/A   Clear
5:53 PM 66.9 °F 59.0 °F 76% 30.05 in 10.0 mi NW 9.2 mph - N/A   Clear
6:53 PM 64.9 °F 59.0 °F 81% 30.06 in 10.0 mi NW 10.4 mph - N/A   Clear
7:53 PM 64.0 °F 59.0 °F 84% 30.08 in 10.0 mi WNW 6.9 mph - N/A   Clear
8:53 PM 62.1 °F 59.0 °F 90% 30.09 in 8.0 mi NW 6.9 mph - N/A   Clear
9:53 PM 60.1 °F 55.0 °F 83% 30.10 in 10.0 mi NNW 6.9 mph - N/A   Clear
10:53 PM 57.9 °F 50.0 °F 75% 30.12 in 10.0 mi NNW 3.5 mph - N/A   Clear
11:53 PM 55.9 °F 48.9 °F 77% 30.11 in 10.0 mi North 3.5 mph - N/A   Clear